Location: Holyhead Bay
(53.3667°N, 4.6667°W)
Time: 00:43:00
(UTC+00:00)

ADEOS Rocket - Pass Details

Date: 24 April 2021
Orbit: 859 x 1306 km, 98.7° (Epoch: 15 May)

Event Time Altitude Azimuth Distance (km) Brightness Sun altitude
Exits shadow 03:25:43 - 183° (S) 3,415 5.4 -12.5°
Reaches altitude 10° 03:27:07 10° 186° (S) 2,915 5.0 -12.3°
Maximum altitude 03:33:38 53° 263° (W) 1,412 3.5 -11.6°
Drops below altitude 10° 03:40:51 10° 339° (NNW) 3,223 5.9 -10.8°
Sets 03:43:44 0° 344° (NNW) 4,237 6.6 -10.4°
